LOT789 EPKK-EPWA

Flight info

Callsign LOT789
Flight time 0h 38m
Altitude 27000
Route POBOK M985 KOTEK M866 LOGDA
Aircraft B738/M-SDE2E3FGHIRWXY/LB1

Departure

Time 2026-04-30 21:36
Airport Kraków John Paul II International Airport (EPKK)

Arrival

Time 2026-04-30 22:14
Airport Warsaw Chopin Airport (EPWA)
Time Latitude Longitude Altitude Speed Heading
2026-04-30 20:56 50.07454 19.79854 799 ft 0 kts 258°
2026-04-30 21:31 50.07497 19.79751 799 ft 7 kts 342°
2026-04-30 21:31 50.07573 19.79726 799 ft 0 kts 348°
2026-04-30 21:32 50.07607 19.79713 799 ft 10 kts 347°
2026-04-30 21:32 50.07681 19.79711 799 ft 7 kts 36°
2026-04-30 21:32 50.07698 19.79778 799 ft 7 kts 76°
2026-04-30 21:32 50.07712 19.79867 799 ft 11 kts 77°
2026-04-30 21:33 50.07730 19.79996 799 ft 13 kts 77°
2026-04-30 21:33 50.07774 19.80294 799 ft 11 kts 65°
2026-04-30 21:33 50.07817 19.80339 799 ft 5 kts
2026-04-30 21:34 50.07828 19.80338 799 ft 0 kts 352°
2026-04-30 21:34 50.07872 19.80326 799 ft 11 kts 349°
2026-04-30 21:34 50.07966 19.80295 799 ft 15 kts 346°
2026-04-30 21:35 50.08008 19.80174 799 ft 14 kts 261°
2026-04-30 21:35 50.07989 19.80027 800 ft 15 kts 258°
2026-04-30 21:35 50.07910 19.79463 799 ft 95 kts 258°
2026-04-30 21:35 50.07718 19.78070 826 ft 163 kts 258°
2026-04-30 21:36 50.07469 19.76331 1802 ft 156 kts 258°
2026-04-30 21:36 50.07201 19.74675 2717 ft 164 kts 259°
2026-04-30 21:37 50.06346 19.68258 3575 ft 235 kts 262°
2026-04-30 21:37 50.06478 19.65730 4024 ft 238 kts 295°
2026-04-30 21:37 50.07470 19.63673 4554 ft 246 kts 326°
2026-04-30 21:37 50.09007 19.62557 5224 ft 250 kts 345°
2026-04-30 21:38 50.10712 19.61932 5998 ft 254 kts 349°
2026-04-30 21:38 50.12461 19.61446 6802 ft 256 kts 359°
2026-04-30 21:38 50.14204 19.61911 7581 ft 256 kts 22°
2026-04-30 21:38 50.15730 19.63320 8133 ft 256 kts 37°
2026-04-30 21:39 50.17089 19.65138 8384 ft 260 kts 40°
2026-04-30 21:39 50.18442 19.67033 8392 ft 261 kts 41°
2026-04-30 21:39 50.19786 19.68922 8395 ft 260 kts 40°
2026-04-30 21:39 50.21138 19.70792 8403 ft 259 kts 40°
2026-04-30 21:40 50.22506 19.72670 8739 ft 265 kts 40°
2026-04-30 21:40 50.23886 19.74559 9716 ft 263 kts 40°
2026-04-30 21:40 50.25261 19.76438 10629 ft 264 kts 40°
2026-04-30 21:40 50.26654 19.78338 11403 ft 268 kts 40°
2026-04-30 21:41 50.28069 19.80268 12249 ft 271 kts 40°
2026-04-30 21:41 50.29491 19.82210 13154 ft 272 kts 40°
2026-04-30 21:41 50.30922 19.84164 14078 ft 275 kts 39°
2026-04-30 21:41 50.32368 19.86141 14936 ft 276 kts 39°
2026-04-30 21:42 50.33811 19.88115 15844 ft 276 kts 40°
2026-04-30 21:42 50.35255 19.90092 16756 ft 276 kts 40°
2026-04-30 21:42 50.36686 19.92054 17652 ft 278 kts 40°
2026-04-30 21:42 50.38142 19.94051 18547 ft 279 kts 40°
2026-04-30 21:43 50.39605 19.96061 19331 ft 280 kts 40°
2026-04-30 21:43 50.40599 19.97425 19857 ft 281 kts 40°
2026-04-30 21:43 50.42549 20.00107 20897 ft 282 kts 40°
2026-04-30 21:43 50.44028 20.02143 21671 ft 283 kts 40°
2026-04-30 21:44 50.45515 20.04191 22433 ft 285 kts 40°
2026-04-30 21:44 50.46506 20.05558 22937 ft 286 kts 40°
2026-04-30 21:44 50.48513 20.08330 23935 ft 288 kts 40°
2026-04-30 21:44 50.49511 20.09711 24343 ft 289 kts 41°
2026-04-30 21:45 50.51021 20.11801 25008 ft 289 kts 41°
2026-04-30 21:45 50.52528 20.13886 25675 ft 289 kts 41°
2026-04-30 21:45 50.54032 20.15971 26316 ft 289 kts 41°
2026-04-30 21:45 50.55541 20.18064 26945 ft 289 kts 41°
2026-04-30 21:46 50.57056 20.20164 27358 ft 291 kts 41°
2026-04-30 21:46 50.58755 20.21991 27393 ft 304 kts 30°
2026-04-30 21:46 50.60762 20.23277 27403 ft 320 kts 23°
2026-04-30 21:46 50.62935 20.24355 27403 ft 333 kts 22°
2026-04-30 21:47 50.65185 20.25458 27401 ft 344 kts 24°
2026-04-30 21:47 50.67435 20.26873 27398 ft 352 kts 27°
2026-04-30 21:47 50.69680 20.28409 27397 ft 361 kts 27°
2026-04-30 21:47 50.72008 20.30037 27398 ft 369 kts 27°
2026-04-30 21:48 50.74370 20.31692 27387 ft 372 kts 27°
2026-04-30 21:48 50.76736 20.33342 27381 ft 371 kts 27°
2026-04-30 21:48 50.79102 20.34985 27385 ft 371 kts 27°
2026-04-30 21:48 50.81459 20.36618 27383 ft 370 kts 27°
2026-04-30 21:49 50.83821 20.38253 27387 ft 369 kts 27°
2026-04-30 21:49 50.86152 20.39865 27374 ft 359 kts 27°
2026-04-30 21:49 50.88415 20.41428 27380 ft 353 kts 27°
2026-04-30 21:49 50.90654 20.42979 27382 ft 352 kts 27°
2026-04-30 21:50 50.92903 20.44542 27389 ft 353 kts 27°
2026-04-30 21:50 50.95153 20.46108 27044 ft 355 kts 27°
2026-04-30 21:50 50.97391 20.47663 26575 ft 347 kts 27°
2026-04-30 21:50 50.99583 20.49187 26047 ft 342 kts 27°
2026-04-30 21:51 51.01719 20.50676 25523 ft 338 kts 26°
2026-04-30 21:51 51.03863 20.52171 24978 ft 335 kts 26°
2026-04-30 21:51 51.05985 20.53653 24376 ft 333 kts 26°
2026-04-30 21:51 51.08113 20.55141 23806 ft 332 kts 26°
2026-04-30 21:52 51.10214 20.56611 23234 ft 328 kts 26°
2026-04-30 21:52 51.12289 20.58064 22704 ft 324 kts 26°
2026-04-30 21:52 51.14344 20.59505 22169 ft 322 kts 26°
2026-04-30 21:52 51.16391 20.60942 21652 ft 321 kts 26°
2026-04-30 21:53 51.18436 20.62378 21130 ft 320 kts 26°
2026-04-30 21:53 51.20490 20.63825 20609 ft 328 kts 25°
2026-04-30 21:53 51.22611 20.65318 20073 ft 336 kts 25°
2026-04-30 21:53 51.24739 20.66816 19631 ft 331 kts 25°
2026-04-30 21:54 51.26772 20.68247 19504 ft 317 kts 25°
2026-04-30 21:54 51.28760 20.69624 19296 ft 307 kts 24°
2026-04-30 21:54 51.30765 20.70775 18986 ft 304 kts 21°
2026-04-30 21:54 51.32795 20.71831 18693 ft 310 kts 20°
2026-04-30 21:55 51.34869 20.72899 18337 ft 316 kts 20°
2026-04-30 21:55 51.36961 20.73986 17983 ft 315 kts 20°
2026-04-30 21:55 51.39037 20.75076 17646 ft 313 kts 20°
2026-04-30 21:55 51.41092 20.76165 17326 ft 311 kts 20°
2026-04-30 21:56 51.43142 20.77257 17010 ft 309 kts 20°
2026-04-30 21:56 51.45175 20.78345 16693 ft 308 kts 20°
2026-04-30 21:56 51.47182 20.79420 16391 ft 307 kts 20°
2026-04-30 21:56 51.49209 20.80509 16079 ft 307 kts 20°
2026-04-30 21:57 51.51236 20.81600 15771 ft 307 kts 20°
2026-04-30 21:57 51.53258 20.82690 15460 ft 307 kts 20°
2026-04-30 21:57 51.55285 20.83785 15153 ft 307 kts 20°
2026-04-30 21:57 51.57307 20.84877 14843 ft 307 kts 20°
2026-04-30 21:58 51.59332 20.85972 14528 ft 307 kts 19°
2026-04-30 21:58 51.61354 20.87066 14221 ft 307 kts 19°
2026-04-30 21:58 51.63378 20.88162 13876 ft 306 kts 19°
2026-04-30 21:58 51.65390 20.89252 13536 ft 305 kts 19°
2026-04-30 21:59 51.67392 20.90338 13221 ft 303 kts 19°
2026-04-30 21:59 51.69391 20.91416 12905 ft 301 kts 19°
2026-04-30 21:59 51.71382 20.92459 12595 ft 300 kts 19°
2026-04-30 22:00 51.75286 20.94496 11990 ft 289 kts 18°
2026-04-30 22:00 51.79190 20.94488 11409 ft 285 kts 343°
2026-04-30 22:00 51.80961 20.93161 11138 ft 282 kts 336°
2026-04-30 22:01 51.82709 20.91677 10845 ft 278 kts 336°
2026-04-30 22:01 51.84388 20.90251 10568 ft 275 kts 336°
2026-04-30 22:01 51.86075 20.88834 10320 ft 270 kts 336°
2026-04-30 22:01 51.87709 20.87469 10069 ft 265 kts 336°
2026-04-30 22:02 51.89346 20.86107 9713 ft 264 kts 336°
2026-04-30 22:02 51.90973 20.84753 9411 ft 262 kts 336°
2026-04-30 22:02 51.92582 20.83414 9129 ft 258 kts 336°
2026-04-30 22:02 51.94172 20.82089 8864 ft 255 kts 336°
2026-04-30 22:03 51.95753 20.80851 8609 ft 250 kts 345°
2026-04-30 22:03 51.97441 20.80633 8351 ft 242 kts 11°
2026-04-30 22:03 51.98992 20.81599 8113 ft 239 kts 31°
2026-04-30 22:03 52.00221 20.83401 7854 ft 240 kts 51°
2026-04-30 22:04 52.01081 20.85731 7621 ft 240 kts 58°
2026-04-30 22:04 52.01832 20.88135 7362 ft 239 kts 63°
2026-04-30 22:04 52.01601 20.93537 6536 ft 259 kts 119°
2026-04-30 22:05 52.00311 20.95562 6214 ft 259 kts 144°
2026-04-30 22:05 51.98761 20.96992 5927 ft 253 kts 149°
2026-04-30 22:05 51.97206 20.98306 5668 ft 252 kts 150°
2026-04-30 22:05 51.95658 20.99628 5403 ft 251 kts 149°
2026-04-30 22:06 51.94116 21.00965 5144 ft 251 kts 149°
2026-04-30 22:06 51.91093 21.03586 4796 ft 241 kts 149°
2026-04-30 22:06 51.89646 21.04858 4673 ft 239 kts 144°
2026-04-30 22:07 51.88531 21.06830 4537 ft 234 kts 110°
2026-04-30 22:07 51.88267 21.09362 4445 ft 229 kts 80°
2026-04-30 22:07 51.88716 21.11759 4343 ft 225 kts 62°
2026-04-30 22:07 51.89437 21.14012 4221 ft 226 kts 58°
2026-04-30 22:08 51.90360 21.16043 4071 ft 224 kts 36°
2026-04-30 22:08 51.91752 21.17055 3968 ft 220 kts
2026-04-30 22:08 51.93260 21.16864 3861 ft 220 kts 342°
2026-04-30 22:08 51.94639 21.15858 3748 ft 215 kts 334°
2026-04-30 22:09 51.95939 21.14738 3625 ft 208 kts 333°
2026-04-30 22:09 51.97193 21.13636 3503 ft 202 kts 332°
2026-04-30 22:09 51.98403 21.12565 3393 ft 195 kts 333°
2026-04-30 22:09 51.99592 21.11523 3300 ft 194 kts 333°
2026-04-30 22:10 52.00776 21.10501 3218 ft 189 kts 334°
2026-04-30 22:10 52.01913 21.09552 3119 ft 179 kts 333°
2026-04-30 22:10 52.02979 21.08634 3019 ft 167 kts 333°
2026-04-30 22:10 52.03970 21.07767 2958 ft 160 kts 332°
2026-04-30 22:11 52.05926 21.06052 2558 ft 158 kts 332°
2026-04-30 22:11 52.06880 21.05214 2367 ft 156 kts 332°
2026-04-30 22:11 52.07818 21.04392 2132 ft 148 kts 332°
2026-04-30 22:12 52.08707 21.03611 1929 ft 142 kts 332°
2026-04-30 22:12 52.09574 21.02850 1738 ft 142 kts 332°
2026-04-30 22:12 52.10450 21.02081 1545 ft 144 kts 332°
2026-04-30 22:12 52.11332 21.01308 1340 ft 144 kts 331°
2026-04-30 22:13 52.12201 21.00546 1135 ft 144 kts 331°
2026-04-30 22:13 52.13089 20.99766 936 ft 147 kts 330°
2026-04-30 22:13 52.14000 20.98966 721 ft 151 kts 330°
2026-04-30 22:13 52.14915 20.98154 484 ft 146 kts 330°
2026-04-30 22:14 52.15797 20.97394 348 ft 138 kts 330°
2026-04-30 22:14 52.16539 20.96737 336 ft 104 kts 331°
2026-04-30 22:14 52.17054 20.96300 336 ft 67 kts 339°
2026-04-30 22:14 52.17316 20.96246 336 ft 17 kts
2026-04-30 22:15 52.17400 20.96300 335 ft 6 kts 46°
2026-04-30 22:15 52.17401 20.96303 335 ft 0 kts 46°
2026-04-30 22:15 52.17402 20.96305 334 ft 0 kts 46°
2026-04-30 22:15 52.17404 20.96308 334 ft 0 kts 46°
2026-04-30 22:16 52.17405 20.96309 334 ft 0 kts 46°
2026-04-30 22:17 52.17415 20.96339 336 ft 5 kts 60°
2026-04-30 22:18 52.17433 20.96392 336 ft 5 kts 62°
2026-04-30 22:18 52.17467 20.96517 337 ft 6 kts 82°
2026-04-30 22:19 52.17399 20.96629 336 ft 10 kts 151°
2026-04-30 22:19 52.17339 20.96682 336 ft 10 kts 151°
2026-04-30 22:19 52.17220 20.96785 338 ft 9 kts 152°
2026-04-30 22:20 52.17165 20.96833 335 ft 11 kts 152°
2026-04-30 22:20 52.16975 20.96999 337 ft 16 kts 152°
2026-04-30 22:20 52.16891 20.97071 333 ft 7 kts 152°
2026-04-30 22:21 52.16860 20.97098 334 ft 5 kts 152°
2026-04-30 22:21 52.16822 20.97137 338 ft 7 kts 140°
2026-04-30 22:21 52.16806 20.97210 336 ft 7 kts 89°
2026-04-30 22:21 52.16808 20.97235 334 ft 0 kts 75°
2026-04-30 22:23 52.16810 20.97253 335 ft 5 kts 82°
2026-04-30 22:23 52.16815 20.97295 338 ft 0 kts 78°
2026-04-30 22:23 52.16816 20.97304 338 ft 2 kts 78°
2026-04-30 22:24 52.16816 20.97309 338 ft 0 kts 78°